Terminal Aerodrome Forecast
Issued by NWS Brownsville, TX

Home | Current Version | Previous Version | Text Only | Print | Product List | Glossary On
Versions: 1 2 3 4 5 6 7 8 9 10 11 12 13 14 15 16 17 18 19 20 21 22 23 24
000
FTUS44 KBRO 181100
TAFBRO
TAF
KBRO 181124Z 1812/1912 16006KT P6SM BKN050
     FM181600 16014KT P6SM VCSH BKN040
     FM190000 14009KT P6SM OVC035
     FM190300 14008KT P6SM OVC025=

USA.gov is the U.S. government's official web portal to all federal, state and local government web resources and services.